[[{"header":{"parameterUnit":"m.s-1","parameterCategory":1,"la1":30.2992,"la2":30.254,"lo1":-89.0895,"lo2":-89.0443,"dy":0.0025,"dx":0.0025,"nx":19,"ny":19,"refTime":"2026-05-08T09:00:00:Z","depth":0,"parameterNumber":2,"parameterNumberName":"U-component_of_WINDS"},"data":[0,0,0,-1.4233,-1.4235,-1.4352,-1.4352,-1.4511,-1.4513,0,0,0,0,0,0,0,0,0,0,0,-1.4203,-1.4205,-1.4232,-1.4235,-1.4352,-1.4352,-1.4511,-1.4513,0,0,0,0,0,0,0,0,0,0,0,-1.4203,-1.4204,-1.4206,-1.4236,-1.4352,-1.4352,-1.4511,-1.4419,0,0,0,0,0,0,0,0,0,0,-1.4304,-1.4283,-1.4204,-1.4206,-1.4237,-1.4352,-1.4353,-1.4415,-1.4425,-1.4462,0,-1.4496,0,-1.4507,-1.4524,-1.4524,0,0,0,-1.4232,-1.4274,-1.43,-1.4206,-1.4238,-1.4352,-1.4298,-1.442,-1.4432,-1.4476,-1.4498,-1.4504,-1.451,-1.4525,-1.4526,-1.4752,-1.4753,0,0,-1.4225,-1.4228,-1.4292,-1.4308,-1.429,-1.4295,-1.4302,-1.4427,-1.4452,-1.4499,-1.4508,-1.4512,-1.4526,-1.4527,-1.4751,-1.4752,0,0,0,-1.4209,-1.4223,-1.4246,-1.4302,-1.4322,-1.4298,-1.4307,-1.4447,-1.4454,-1.4509,-1.4514,-1.4527,-1.4529,-1.4749,-1.4751,-1.4815,0,0,0,-1.4205,-1.4214,-1.4244,-1.4246,-1.432,-1.4386,-1.4324,-1.4445,-1.4459,-1.4513,-1.4527,-1.4531,-1.4748,-1.475,-1.4811,-1.4846,0,0,0,-1.4194,-1.4212,-1.4231,-1.4246,-1.4296,-1.4384,-1.4398,-1.4448,-1.4463,-1.4525,-1.4531,-1.4747,-1.475,-1.4806,-1.4839,-1.4908,0,0,0,-1.4183,-1.4287,-1.4232,-1.4349,-1.4295,-1.4422,-1.4397,-1.4491,-1.4552,-1.4528,-1.4748,-1.4751,-1.4805,-1.4835,-1.4903,-1.4967,-1.4993,0,0,-1.4315,-1.4303,-1.4371,-1.4326,-1.4463,-1.4404,-1.455,-1.4604,-1.4607,-1.4703,-1.4709,-1.4812,-1.4839,-1.4907,-1.5135,-1.5156,0,0,0,-1.4414,-1.4464,-1.45,-1.4557,-1.4599,-1.4639,-1.467,-1.4689,-1.477,-1.4657,-1.4854,-1.487,-1.4909,-1.494,-1.4958,-1.4992,-1.4764,-1.4764,-1.4764,-1.4607,-1.4605,-1.4719,-1.4732,-1.4787,-1.4817,-1.4862,-1.4894,-1.4876,-1.4922,-1.4952,-1.5091,-1.5126,-1.514,-1.5176,-1.4983,-1.4984,-1.4984,-1.4984,-1.4803,-1.4874,-1.4846,-1.4947,-1.4944,-1.5029,-1.5061,-1.5045,-1.5125,-1.5068,-1.5103,-1.5045,-1.5163,-1.5194,-1.4989,-1.4988,-1.4987,-1.4987,-1.4986,-1.4932,-1.4966,-1.4986,-1.5068,-1.5132,-1.5139,-1.5216,-1.521,-1.5206,-1.524,-1.5271,-1.527,-1.527,-1.5254,-1.5255,-1.5255,-1.5256,-1.5256,-1.5256,-1.5058,-1.5079,-1.5145,-1.5197,-1.5233,-1.5279,-1.5308,-1.5343,-1.538,-1.537,-1.537,-1.5349,-1.5173,-1.5131,-1.5264,-1.5263,-1.5262,-1.5261,-1.5261,-1.5263,-1.5215,-1.5316,-1.5352,-1.5412,-1.5476,-1.5466,-1.5538,-1.5565,-1.5604,-1.5574,-1.5444,-1.5431,-1.5417,-1.5382,-1.5572,-1.5572,-1.5572,-1.5572,-1.5374,-1.5365,-1.5467,-1.5524,-1.5579,-1.558,-1.5695,-1.5718,-1.5734,-1.5751,-1.5722,-1.5674,-1.5659,-1.5655,-1.5636,-1.5604,-1.5846,-1.5846,-1.5846,-1.55,-1.5496,-1.5596,-1.561,-1.5656,-1.5696,-1.5804,-1.5871,-1.5879,-1.5857,-1.5765,-1.5753,-1.5675,-1.565,-1.563,-1.56,-1.554,0,0]},{"header":{"parameterUnit":"m.s-1","parameterCategory":1,"la1":30.2992,"la2":30.254,"lo1":-89.0895,"lo2":-89.0443,"dy":0.0025,"dx":0.0025,"nx":19,"ny":19,"refTime":"2026-05-08T09:00:00:Z","depth":0,"parameterNumber":3,"parameterNumberName":"V-component_of_WINDS"},"data":[0,0,0,-2.7124,-2.7126,-2.7185,-2.7185,-2.7263,-2.7264,0,0,0,0,0,0,0,0,0,0,0,-2.711,-2.7111,-2.7124,-2.7126,-2.7185,-2.7185,-2.7263,-2.7264,0,0,0,0,0,0,0,0,0,0,0,-2.711,-2.7111,-2.7112,-2.7126,-2.7185,-2.7185,-2.7263,-2.7217,0,0,0,0,0,0,0,0,0,0,-2.7159,-2.715,-2.7111,-2.7112,-2.7126,-2.7184,-2.7185,-2.7215,-2.722,-2.7238,0,-2.7257,0,-2.7262,-2.7269,-2.727,0,0,0,-2.7123,-2.7146,-2.7159,-2.7112,-2.7127,-2.7184,-2.7157,-2.7217,-2.7223,-2.7245,-2.7258,-2.7261,-2.7263,-2.727,-2.727,-2.739,-2.7391,0,0,-2.7119,-2.7123,-2.7155,-2.7163,-2.7156,-2.7155,-2.7159,-2.7221,-2.7235,-2.7258,-2.7263,-2.7264,-2.727,-2.7271,-2.7389,-2.739,0,0,0,-2.7112,-2.712,-2.7132,-2.7159,-2.717,-2.7157,-2.7161,-2.7232,-2.7235,-2.7263,-2.7265,-2.7271,-2.7272,-2.7389,-2.739,-2.7428,0,0,0,-2.711,-2.7116,-2.713,-2.7133,-2.7169,-2.7202,-2.7171,-2.7231,-2.7238,-2.7265,-2.7271,-2.7273,-2.7388,-2.7389,-2.7426,-2.7446,0,0,0,-2.7105,-2.7115,-2.7125,-2.7133,-2.7158,-2.7201,-2.7208,-2.7233,-2.7239,-2.727,-2.7273,-2.7387,-2.7389,-2.7423,-2.7442,-2.7479,0,0,0,-2.7101,-2.7158,-2.7126,-2.7191,-2.7158,-2.7225,-2.7207,-2.7257,-2.7287,-2.7271,-2.7388,-2.739,-2.7422,-2.744,-2.7477,-2.7512,-2.7527,0,0,-2.7175,-2.7167,-2.7205,-2.7178,-2.7252,-2.7215,-2.7294,-2.7318,-2.7317,-2.7365,-2.7368,-2.7426,-2.7442,-2.7479,-2.7606,-2.7618,0,0,0,-2.723,-2.7257,-2.7276,-2.7306,-2.7326,-2.7345,-2.7357,-2.7366,-2.7407,-2.7343,-2.7449,-2.7458,-2.748,-2.7496,-2.7506,-2.7524,-2.7397,-2.7397,-2.7397,-2.734,-2.7337,-2.7399,-2.7402,-2.7431,-2.7443,-2.7465,-2.7479,-2.7466,-2.7491,-2.7506,-2.7584,-2.7603,-2.7611,-2.763,-2.7523,-2.7523,-2.7523,-2.7524,-2.7449,-2.7488,-2.7469,-2.7524,-2.7519,-2.7563,-2.7576,-2.7565,-2.7605,-2.7573,-2.7591,-2.7557,-2.7624,-2.764,-2.7526,-2.7526,-2.7526,-2.7525,-2.7525,-2.7523,-2.754,-2.755,-2.7593,-2.7625,-2.7625,-2.7665,-2.7658,-2.7652,-2.7671,-2.7686,-2.7685,-2.7684,-2.7678,-2.7678,-2.7679,-2.7679,-2.7679,-2.7679,-2.7595,-2.7605,-2.764,-2.7666,-2.7684,-2.7706,-2.7717,-2.7734,-2.7751,-2.7743,-2.7743,-2.7728,-2.7631,-2.7607,-2.7683,-2.7683,-2.7682,-2.7682,-2.7681,-2.771,-2.7682,-2.7737,-2.7755,-2.7784,-2.7816,-2.7807,-2.7842,-2.7854,-2.7874,-2.7854,-2.7783,-2.7774,-2.7766,-2.7747,-2.7855,-2.7855,-2.7855,-2.7855,-2.7772,-2.7767,-2.7821,-2.785,-2.7877,-2.7874,-2.7933,-2.7942,-2.7946,-2.7953,-2.7936,-2.7909,-2.7901,-2.7897,-2.7886,-2.7868,-2.8004,-2.8004,-2.8004,-2.7843,-2.784,-2.7893,-2.7897,-2.7919,-2.7938,-2.7994,-2.8026,-2.8025,-2.801,-2.7959,-2.7952,-2.7909,-2.7894,-2.7881,-2.7864,-2.783,0,0]}]]